Weather History for New Castle, PA

Change the Weather History Date:

Monday, August 5, 2013

  Actual Average Record
Temperature  
Mean Temperature 60 °F -  
Max Temperature 73 °F 82 °F 99 °F (1930)
Min Temperature 47 °F 58 °F 41 °F (1934)
Degree Days  
Heating Degree Days 5    
Growing Degree Days 10 (Base 50)    
Moisture  
Dew Point 51 °F    
Average Humidity 82    
Maximum Humidity 100    
Minimum Humidity 43    
Precipitation  
Precipitation 0.00 in - - ()
Sea Level Pressure  
Sea Level Pressure 30.15 in    
Wind  
Wind Speed 0 mph (WSW)    
Max Wind Speed 7 mph    
Max Gust Speed -    
Visibility 7 miles    
Events Fog    
Averages and records for this station are not official NWS values.
T = Trace of Precipitation, MM = Missing Value Source: NWS Daily Summary

Daily Weather History Graph

Daily Weather History Graph

Search for Another Location

Airport:

Trip Planner

Search our weather history database for the weather conditions in past years. The results will help you decide how hot, cold, wet, or windy it might be!

Date:

Astronomy

Aug. 05, 2013 Rise Set
Actual Time 6:21 AM EDT 8:32 PM EDT
Civil Twilight 5:51 AM EDT 9:03 PM EDT
Nautical Twilight 5:13 AM EDT 9:40 PM EDT
Astronomical Twilight 4:32 AM EDT 10:21 PM EDT
Moon 5:15 AM EDT (8/5) 7:32 PM EDT (8/5)
Length of Visible Light 15h 12m
Length of Day
14h 11m
Waning Crescent, 1% of the Moon is Illuminated
Aug 5
Waning Crescent
Aug 6
New
Aug 14
First Quarter
Aug 20
Full
Aug 28
Last Quarter

Hourly Weather History & Observations

Time (EDT) Temp. Dew Point Humidity Pressure Visibility Wind Dir Wind Speed Gust Speed Precip Events Conditions
12:56 AM 54.9 °F 52.9 °F 93% 30.18 in 10.0 mi Calm Calm - N/A   Clear
1:56 AM 52.9 °F 52.9 °F 100% 30.17 in 10.0 mi Calm Calm - N/A   Clear
2:56 AM 52.0 °F 52.0 °F 100% 30.17 in 10.0 mi Calm Calm - N/A   Clear
3:56 AM 50.0 °F 50.0 °F 100% 30.18 in 2.0 mi Calm Calm - N/A   Clear
4:10 AM 50.0 °F 50.0 °F 100% 30.14 in 9.0 mi Calm Calm - N/A   Clear
4:56 AM 48.9 °F 47.8 °F 96% 30.18 in 10.0 mi Calm Calm - N/A   Clear
5:09 AM 48.2 °F 48.2 °F 100% 30.14 in 1.2 mi Calm Calm - N/A   Clear
5:11 AM 48.2 °F 48.2 °F 100% 30.14 in 0.8 mi Calm Calm - N/A   Clear
5:21 AM 48.2 °F 48.2 °F 100% 30.14 in 0.5 mi Calm Calm - N/A Fog Fog
5:29 AM 48.2 °F 48.2 °F 100% 30.14 in 1.0 mi Calm Calm - N/A   Clear
5:31 AM 48.2 °F 48.2 °F 100% 30.14 in 2.0 mi Calm Calm - N/A   Clear
5:39 AM 48.2 °F 48.2 °F 100% 30.14 in 9.0 mi Calm Calm - N/A   Clear
5:56 AM 47.8 °F 46.9 °F 97% 30.19 in 4.0 mi Calm Calm - N/A   Partly Cloudy
6:04 AM 48.2 °F 48.2 °F 100% 30.15 in 2.0 mi Calm Calm - N/A   Scattered Clouds
6:07 AM 48.2 °F 46.4 °F 93% 30.15 in 0.8 mi Calm Calm - N/A   Mist
6:09 AM 48.2 °F 48.2 °F 100% 30.15 in 0.2 mi Calm Calm - N/A Fog Fog
6:18 AM 48.2 °F 48.2 °F 100% 30.15 in 0.2 mi Calm Calm - N/A Fog Fog
6:44 AM 48.2 °F 48.2 °F 100% 30.15 in 1.2 mi Calm Calm - N/A   Mostly Cloudy
6:46 AM 48.2 °F 48.2 °F 100% 30.15 in 2.5 mi Calm Calm - N/A   Scattered Clouds
6:56 AM 47.8 °F 47.8 °F 100% 30.19 in 5.0 mi Calm Calm - N/A   Partly Cloudy
7:20 AM 48.2 °F 48.2 °F 100% 30.16 in 1.8 mi Calm Calm - N/A   Mostly Cloudy
7:26 AM 50.0 °F 50.0 °F 100% 30.16 in 3.0 mi Calm Calm - N/A   Partly Cloudy
7:56 AM 52.0 °F 52.0 °F 100% 30.20 in 10.0 mi Calm Calm - N/A   Partly Cloudy
8:56 AM 57.9 °F 54.0 °F 87% 30.20 in 10.0 mi Calm Calm - N/A   Clear
9:56 AM 63.0 °F 54.0 °F 72% 30.20 in 10.0 mi Calm Calm - N/A   Clear
10:56 AM 65.8 °F 52.9 °F 63% 30.19 in 10.0 mi Calm Calm - N/A   Clear
11:56 AM 68.9 °F 52.0 °F 55% 30.18 in 10.0 mi Calm Calm - N/A   Partly Cloudy
12:56 PM 70.9 °F 52.0 °F 51% 30.16 in 10.0 mi WSW 5.8 mph - N/A   Scattered Clouds
1:24 PM 71.6 °F 51.8 °F 50% 30.11 in 10.0 mi SW 4.6 mph - N/A   Scattered Clouds
1:56 PM 71.6 °F 53.6 °F 53% 30.11 in 10.0 mi Calm Calm - N/A   Scattered Clouds
2:56 PM 72.9 °F 50.9 °F 46% 30.12 in 10.0 mi West 6.9 mph - N/A   Mostly Cloudy
3:24 PM 73.4 °F 50.0 °F 44% 30.09 in 10.0 mi WSW 4.6 mph - N/A   Scattered Clouds
3:56 PM 72.9 °F 48.9 °F 43% 30.12 in 10.0 mi Calm Calm - N/A   Scattered Clouds
4:18 PM 71.6 °F 50.0 °F 46% 30.09 in 10.0 mi Calm Calm - N/A   Scattered Clouds
4:56 PM 70.9 °F 50.9 °F 49% 30.13 in 10.0 mi Calm Calm - N/A   Partly Cloudy
5:56 PM 70.0 °F 52.0 °F 53% 30.13 in 10.0 mi Calm Calm - N/A   Partly Cloudy
6:56 PM 68.0 °F 54.9 °F 63% 30.11 in 10.0 mi Calm Calm - N/A   Clear
7:56 PM 65.8 °F 54.9 °F 68% 30.11 in 10.0 mi Calm Calm - N/A   Clear
8:56 PM 63.0 °F 54.0 °F 72% 30.11 in 10.0 mi Calm Calm - N/A   Clear
9:56 PM 61.0 °F 52.9 °F 75% 30.10 in 10.0 mi Calm Calm - N/A   Clear
10:56 PM 56.8 °F 54.9 °F 93% 30.10 in 10.0 mi Calm Calm - N/A   Clear
11:56 PM 55.9 °F 54.0 °F 93% 30.09 in 10.0 mi Calm Calm - N/A   Clear